Regional Weather Roundup
Issued by NWS

Home | Current Version | Previous Version | Text Only | Print | Product List | Glossary Off
Versions: 1 2 3 4 5 6 7 8 9 10 11 12 13 14 15 16 17 18 19 20 21 22 23 24 25 26 27 28 29 30 31 32 33 34 35 36 37 38 39 40 41 42 43 44 45 46 47 48 49 50

530
ASUS43 KDTX 081310
RWRMI
MICHIGAN HOURLY REGIONAL WEATHER ROUNDUP
NATIONAL WEATHER SERVICE DETROIT/PONTIAC MI
800 AM EST MON FEB 08 2016

NOTE: "FAIR" INDICATES FEW OR NO CLOUDS BELOW 12,000 FEET WITH NO
SIGNIFICANT WEATHER AND/OR OBSTRUCTION TO VISIBILITY.

MIZ047>049-052>055-059>063-066>070-074>076-081>083-081400-
SOUTHEAST LOWER MICHIGAN

CITY           SKY/WX    TMP DP  RH WIND       PRES   REMARKS
ADRIAN         PTCLDY    31  28  89 W5        29.63S WCI  26
ALMA           FOG       27  27 100 CALM      29.61S VSB<1/4
ANN ARBOR      CLOUDY    30  28  92 CALM      29.62S
BAD AXE        CLOUDY    35  32  89 SW3       29.61S
CARO           CLOUDY    34  30  86 SW3       29.60S
DETROIT CITY   CLOUDY    38  31  76 W3        29.61F
DETROIT        CLOUDY    36  30  79 SW5       29.62S WCI  32
FLINT          PTCLDY    34  28  79 SW5       29.61S WCI  30
GROSSE ILE     CLOUDY    36  32  87 CALM      29.61R
HILLSDALE      CLEAR     30  28  92 CALM      29.61S
HOWELL         CLOUDY    32  30  92 CALM      29.61R

CITY           SKY/WX    TMP DP  RH WIND       PRES   REMARKS
JACKSON        CLOUDY    31  27  85 SW3       29.61S
LAMBERTVILLE   CLOUDY    33  31  90 W5        29.64R WCI  29
LANSING        CLOUDY    31  27  85 CALM      29.62R
LAPEER         CLOUDY    35  31  85 CALM      29.60S
MASON          CLOUDY    32  29  89 CALM      29.62R
MONROE         CLOUDY    33  31  92 SW3       29.62S
MT. CLEMENS    LGT RAIN  36  36 100 S2        29.60S FOG
PONTIAC        CLOUDY    34  28  79 W6        29.59S WCI  29
PORT HOPE        N/A     35  31  85 CALM      29.60R
PORT HURON     CLOUDY    36  34  93 CALM      29.61S FOG
TRI CITIES     CLOUDY    33  29  85 SW6       29.61S WCI  28
MIDLAND        MOCLDY    29  28  96 CALM      29.60S FOG
TROY           CLOUDY    38  30  71 CALM      29.62S
SAGINAW HB     MOCLDY    32  32 100 SW6       29.61S WCI  26
$$
MIZ043>046-050>051-056>058-064>065-071>073-077>080-081400-
SOUTHWEST LOWER MICHIGAN

CITY           SKY/WX    TMP DP  RH WIND       PRES   REMARKS
BATTLE CREEK   CLEAR     26  24  92 SW3       29.62R FOG
BENTON HARBOR  CLOUDY    31  28  89 S3        29.62S
BIG RAPIDS     CLOUDY    29  29 100 MISG      29.59S FOG
COLDWATER      CLEAR     28  28  98 S3        29.62S
FREMONT        CLOUDY    28  28 100 CALM      29.59R
HOLLAND        PTCLDY    30  27  88 S5        29.61R WCI  25
GRAND RAPIDS   CLOUDY    30  28  92 S7        29.61S WCI  23
IONIA          FAIR      27  27  98 CALM      29.61R
KALAMAZOO      CLEAR     27  23  85 S3        29.62R
LUDINGTON      MOCLDY    29  29  99 CALM      29.59S
MARSHALL       PTCLDY    28  26  96 CALM      29.61S
MOUNT PLEASANT PTCLDY    29  27  90 CALM      29.60S FOG
MUSKEGON       CLOUDY    31  28  89 CALM      29.60R
SOUTH HAVEN    MOCLDY    32  31  95 SW3       29.61S
$$
MIZ016>042-081400-
NORTHERN LOWER MICHIGAN

CITY           SKY/WX    TMP DP  RH WIND       PRES   REMARKS
ALPENA         CLOUDY    26  24  92 CALM      29.60S
BEAVER ISLAND  PTCLDY    30  29  97 CALM      29.58R FOG
BELLAIRE       MOCLDY    24  23  96 CALM      29.60R FOG
CADILLAC       MOCLDY    28  27  96 SW5       29.56S WCI  22
CHARLEVOIX     CLEAR     29  29 100 SE3       29.61S FOG
FRANKFORT      CLOUDY    32  30  93 CALM      29.57S
GAYLORD        FOG       27  26  96 S5        29.57R VSB 1/4 WCI  22
GRAYLING       FOG       26  26  97 CALM      29.59R VSB<1/4
HARBOR SPRINGS CLEAR     27  26  96 CALM      29.58S
HOUGHTON LAKE  FOG       24  22  91 CALM      29.58S VSB 1/4
MANISTEE       CLOUDY    30  27  86 E3        29.58S
OSCODA         CLOUDY    29  28  98 CALM      29.60S
PELLSTON       FOG       22  20  92 CALM      29.59R VSB 1/4
ROGERS CITY    PTCLDY    31  27  87 S6        29.60S WCI  25
TRAVERSE CITY  MOCLDY    32  28  85 CALM      29.57S
$$
MIZ007>008-015-081400-
EASTERN UPPER MICHIGAN

CITY           SKY/WX    TMP DP  RH WIND       PRES   REMARKS
KINROSS        CLOUDY    32  30  93 E3        29.59R
MACKINAC ISLAN CLEAR     32  32 100 S6        29.58R WCI  26
NEWBERRY       CLOUDY    32  32  99 SE5       29.56S FOG     WCI  28
S. S. MARIE    CLOUDY    34  32  92 E5        29.59R FOG     WCI  30
MUNISING         N/A     33  31  92 NW9       29.57R WCI  25
$$
MIZ004>006-011>014-085-081400-
CENTRAL UPPER MICHIGAN

CITY           SKY/WX    TMP DP  RH WIND       PRES   REMARKS
MANISTIQUE     LGT SNOW  32  31  98 CALM      29.57R
ESCANABA       CLOUDY    30  28  93 CALM      29.58R
MENOMINEE      CLOUDY    32  27  80 CALM      29.57S
SAWYER-GWINN   LGT SNOW  27  25  93 N9        29.57R WCI  17
$$
MIZ001>003-009>011-084-081400-
WESTERN UPPER MICHIGAN

CITY           SKY/WX    TMP DP  RH WIND       PRES   REMARKS
IRON MOUNTAIN  LGT SNOW  30  28  92 NW6       29.55R VSB 1   WCI  24
HOUGHTON       LGT SNOW  17  12  80 N14G25    29.65R WCI   3
COPPER HARBOR    N/A     23  20  88 NE22G29   29.65R WCI   8
IRONWOOD       CLOUDY    19  18  93 NW10      29.67R WCI   8
$$

ABBREVIATIONS USED IN REMARKS
   TC - TEMPERATURE IN CELSIUS
  WCI - WIND CHILL INDEX
   HX - HEAT INDEX
  VSB - VISIBILITY





USA.gov is the U.S. government's official web portal to all federal, state and local government web resources and services.